Location: Sankt+Gallen
(47.4262°N, 9.3755°E)
Time: 08:51:45
(UTC+01:00)

ARIANE 6 FM1 Upper Stage - Pass Details

Date: 17 February 2026
Orbit: 523 x 606 km, 62.0° (Epoch: 14 March)

Event Time Altitude Azimuth Distance (km) Brightness Sun altitude
Rises 20:16:46 0° 307° (NW) 2,659 7.1 -25.5°
Reaches altitude 10° 20:19:16 10° 293° (WNW) 1,768 6.2 -25.9°
Maximum altitude 20:22:24 23° 240° (WSW) 1,159 4.7 -26.5°
Enters shadow 20:23:31 20° 215° (SW) 1,255 4.6 -26.6°
